RH
100 100 99 98 99 93 95 77 38 47 62 66 54 50 31 28 28 27 15 15 12 10 9 11 12 13 14 56 88 95 97 95 94 97 100 98 100 100
100 100 100 99 98 96 81 73 75 76 86 60 47 80 87 99 60 20 19 16 13 13 12 14 12 13 50 91 96 98 98 96 95 99 98 100 100 100
100 98 92 78 77 69 72 76 76 72 80 98 100 98 72 22 16 20 19 20 19 16 13 14 16 26 68 77 88 98 97 100 100 100 100 100 100 100
100 98 91 82 73 76 71 90 99 100 100 95 71 35 24 16 13 14 19 18 17 10 13 26 38 42 43 43 53 89 100 98 100 100 100 100 100 99
93 76 70 68 73 86 98 100 100 99 56 34 27 21 22 23 30 59 44 34 33 18 36 42 42 45 44 46 49 58 73 84 90 98 100 100 100 100
76 65 72 90 98 100 99 87 34 22 33 29 30 62 84 88 96 86 84 75 75 54 56 50 47 44 44 47 47 47 48 50 54 56 83 99 98 100
82 88 94 100 98 99 77 20 17 21 24 31 94 93 94 86 85 83 82 86 87 82 77 81 76 74 58 49 46 47 49 51 53 76 100 100 100 100
95 100 100 98 35 16 17 19 19 32 95 99 99 97 87 85 82 86 96 100 98 65 94 98 86 89 70 54 48 47 49 50 57 98 100 100 99 96
98 69 21 18 18 19 17 19 25 42 62 84 92 90 88 83 83 92 100 100 100 96 100 100 68 86 73 72 54 50 51 50 52 56 88 100 100 100
22 20 19 16 15 18 23 38 41 63 49 49 60 57 68 91 100 100 100 100 100 92 97 98 72 92 87 77 62 56 55 58 59 59 80 100 100 99
17 15 16 18 21 25 92 65 47 32 32 28 36 42 52 65 71 78 89 100 94 70 76 100 85 97 81 61 66 68 63 61 64 65 68 81 99 100
16 19 21 22 27 42 29 31 29 29 35 38 52 63 66 70 74 78 81 83 89 97 88 98 86 97 100 74 76 71 66 68 70 70 67 69 73 100
20 22 22 21 22 23 26 31 32 32 64 59 69 70 72 74 76 79 84 89 92 88 76 100 96 92 100 100 79 74 73 68 78 76 81 74 70 75
21 22 24 23 22 24 26 28 32 42 65 70 70 71 73 74 76 78 80 84 89 86 78 88 92 88 92 91 90 74 72 70 75 70 73 76 78 77
23 24 23 24 25 26 28 33 50 71 74 75 76 76 77 75 74 76 76 77 78 76 75 79 85 86 95 96 93 75 77 68 69 73 76 86 91 91
24 27 28 29 28 31 38 61 76 80 83 83 82 80 79 78 80 82 80 78 76 70 75 79 84 91 91 88 95 81 72 98 77 80 90 94 93 92
29 31 33 33 37 49 72 80 83 85 86 87 86 84 82 84 84 86 86 84 86 78 72 73 84 100 98 94 75 82 80 86 85 92 100 100 96 90
34 36 37 42 55 76 82 83 85 87 88 88 87 87 86 88 88 89 94 96 92 84 82 77 81 89 99 100 96 94 98 100 99 100 100 100 96 92
37 38 41 56 79 86 85 86 87 88 89 89 90 91 93 92 94 91 94 100 100 95 97 98 100 100 99 99 98 98 98 97 98 91 91 100 100 73
39 38 45 68 84 85 86 87 88 89 91 91 91 94 97 100 96 100 100 99 96 100 100 99 100 100 98 97 98 85 90 94 93 92 89 89 87 80
41 40 45 70 82 84 86 87 88 91 94 93 93 93 96 99 100 100 96 93 98 99 100 97 92 100 100 96 98 97 80 86 96 96 92 97 88 82
42 41 39 62 77 82 84 84 85 90 93 94 94 95 96 100 100 99 99 99 95 97 97 96 98 98 96 97 99 98 82 77 79 78 79 94 97 96
40 41 37 50 73 78 80 81 84 89 95 97 96 96 96 100 100 100 100 100 100 97 100 98 94 97 99 98 96 95 94 81 80 79 75 89 95 96
Wind_Speed
43 39 38 37 36 34 27 19 18 14 16 18 19 15 14 17 22 29 32 32 33 34 33 32 33 33 32 29 26 26 27 27 28 29 29 28 30 30
35 33 36 36 31 27 22 22 20 22 15 12 14 19 21 25 24 31 31 32 32 33 30 30 32 31 27 24 24 25 26 26 27 28 29 29 30 30
31 29 22 18 18 18 17 18 16 16 19 24 22 19 22 25 26 28 29 30 30 31 30 29 27 25 25 25 25 25 26 26 27 27 28 28 29 30
26 23 23 15 18 11 13 16 17 19 18 16 16 22 23 24 26 28 28 29 29 28 26 23 22 24 23 24 25 25 26 27 28 28 29 30 31 32
18 17 14 12 14 14 15 16 12 12 15 17 20 23 26 24 24 22 23 25 24 24 24 23 22 21 22 25 25 26 28 28 29 29 30 31 31 32
16 13 12 13 11 10 9 8 10 13 18 19 18 17 18 15 19 19 20 20 20 22 23 21 21 20 21 23 24 26 27 27 27 29 29 30 31 32
13 12 11 9 9 8 7 11 11 14 17 16 13 14 16 15 16 18 19 19 21 22 19 18 22 24 25 25 26 26 27 29 30 29 29 30 31 32
7 6 6 6 4 7 8 11 14 14 13 14 15 15 16 17 16 16 19 19 22 21 15 24 22 24 26 26 27 26 26 27 28 29 29 29 29 30
5 2 3 4 6 8 11 12 13 14 17 16 17 17 18 16 19 19 18 22 25 23 22 24 25 25 24 26 30 30 24 20 21 24 27 28 28 29
3 2 4 6 9 10 11 14 15 15 17 18 19 18 17 15 17 19 21 22 22 23 20 25 25 24 26 30 35 27 22 24 23 23 25 27 28 30
2 4 6 8 10 10 9 15 15 17 18 19 17 16 16 17 17 19 19 19 24 28 26 18 25 26 33 36 29 28 34 29 28 27 26 27 29 29
6 8 10 10 10 10 13 14 16 15 16 14 12 12 13 14 15 17 18 22 24 26 17 22 33 28 22 35 26 35 32 34 30 30 27 26 25 27
8 10 10 11 12 12 13 13 14 14 12 13 13 13 13 14 14 15 18 22 25 29 31 24 32 33 28 33 39 37 35 36 34 33 30 24 18 21
10 11 12 13 14 14 14 13 12 11 11 12 13 13 15 15 13 17 20 24 26 28 28 24 29 27 28 35 38 39 38 36 34 29 24 27 27 26
12 13 14 14 13 12 11 10 9 9 10 12 13 14 16 15 16 20 23 23 27 26 22 21 23 24 27 32 37 39 38 36 25 27 28 30 30 28
14 14 13 13 12 11 8 7 7 9 11 13 15 16 16 15 18 22 25 26 30 28 25 23 23 24 26 28 33 38 33 32 34 31 32 33 31 28
14 14 13 11 8 6 6 6 8 10 12 14 17 17 16 17 20 24 25 27 29 31 31 25 26 26 27 26 31 32 33 35 33 34 34 37 33 30
13 12 10 8 6 5 5 6 8 10 13 15 17 17 16 18 23 25 25 28 30 30 30 28 29 31 30 28 27 32 34 36 36 34 31 32 35 31
11 10 8 6 6 6 7 9 10 12 14 16 18 16 16 20 25 27 28 31 29 28 29 30 29 28 32 33 31 26 32 35 32 33 29 30 33 33
10 9 7 6 7 8 9 10 12 14 16 17 18 17 18 22 26 28 31 29 29 30 30 29 28 28 30 37 43 40 31 32 33 33 33 32 32 33
10 10 9 8 8 9 11 12 14 16 18 19 19 19 19 23 27 29 31 28 29 30 32 33 32 30 33 33 34 38 39 31 29 31 32 32 35 36
11 11 10 10 10 12 13 15 16 18 20 21 21 22 20 22 28 30 31 32 32 32 35 38 37 35 34 34 37 39 43 38 32 29 27 26 28 28
12 12 11 12 12 14 15 18 19 20 21 23 22 22 21 24 28 31 33 33 34 36 36 40 38 37 36 34 37 40 42 43 39 37 35 30 31 33
Wind_Direction
242 240 238 242 246 249 255 250 240 243 263 258 255 258 263 266 279 290 290 293 298 301 303 305 302 300 297 294 291 288 287 287 286 284 281 282 279 279
237 236 236 236 239 249 248 240 242 235 231 244 247 256 263 277 288 285 291 293 298 302 305 301 299 298 296 293 290 287 287 286 283 284 282 280 280 278
234 229 229 229 231 228 234 246 249 255 249 257 268 284 288 281 286 289 294 296 299 302 306 301 301 300 296 293 290 288 287 285 283 281 281 279 278 277
227 231 231 240 244 246 248 253 259 256 261 274 294 281 278 279 283 289 292 296 298 303 301 302 303 300 299 297 292 290 287 284 282 281 280 279 278 277
222 226 232 234 247 253 259 260 261 277 284 277 277 283 287 294 299 295 297 300 303 309 308 310 304 302 299 295 295 293 289 286 284 281 280 278 277 276
209 215 231 240 249 258 255 283 286 282 276 279 288 289 290 295 293 300 298 299 305 309 309 310 309 310 306 308 303 298 296 294 291 287 282 279 277 275
208 214 224 238 242 253 276 269 274 270 274 286 290 285 287 294 292 294 299 306 308 307 311 312 312 307 309 308 301 302 300 297 291 286 283 280 278 276
195 197 211 243 261 261 277 278 280 286 287 281 282 289 293 291 294 297 301 305 309 317 304 304 307 302 307 307 309 308 304 296 289 286 282 280 279 276
152 166 230 266 287 291 287 285 289 282 277 280 285 288 288 290 288 302 298 300 299 302 298 299 315 307 311 304 310 314 309 300 296 293 285 282 280 276
177 248 290 295 294 294 293 286 291 293 294 294 290 290 290 295 290 296 298 298 298 304 301 297 314 300 306 306 310 311 313 309 304 298 290 285 280 275
299 289 292 298 298 304 301 297 300 299 298 301 299 297 295 294 296 297 300 296 303 312 313 295 314 303 308 312 318 319 322 320 316 307 295 287 283 279
325 322 319 314 309 299 300 298 300 303 305 310 308 304 303 305 304 301 302 304 307 312 311 308 312 315 311 314 310 313 315 318 315 311 306 300 289 278
316 313 313 312 309 309 308 302 302 308 307 311 313 313 312 312 307 304 308 309 307 304 321 311 304 305 295 298 310 312 315 319 314 311 302 297 291 286
317 317 319 323 321 315 309 307 308 310 309 309 311 315 313 313 307 309 311 308 306 309 317 310 306 309 303 302 304 317 316 315 314 313 312 307 300 292
327 321 318 316 315 312 310 309 309 307 307 311 316 319 318 316 314 314 316 315 313 320 324 321 312 310 305 304 305 310 314 319 314 316 317 315 309 303
324 321 319 320 320 315 315 311 310 312 315 319 319 320 320 318 322 323 322 323 320 325 332 328 322 315 311 311 307 307 316 307 319 320 319 313 310 309
321 322 322 321 317 312 312 314 316 320 321 322 321 321 319 317 322 326 326 327 326 326 326 330 328 323 315 315 310 310 315 316 321 321 319 314 314 314
319 320 321 323 325 323 320 319 321 322 322 322 322 319 316 317 323 328 328 327 324 324 324 328 329 329 323 310 310 309 311 311 316 312 309 305 310 316
319 319 317 319 322 326 327 329 331 327 324 325 323 317 314 320 326 328 329 329 326 321 322 326 320 315 312 305 311 305 302 310 312 312 313 310 308 316
310 307 304 308 313 319 322 328 329 328 328 325 325 320 317 318 325 330 330 331 330 323 317 322 324 321 312 309 313 318 321 317 315 310 310 310 308 313
304 301 294 296 300 309 316 322 324 326 328 324 323 317 313 316 324 328 331 332 325 325 321 323 330 329 319 319 304 305 320 322 316 310 310 307 306 310
297 294 284 284 291 300 310 316 319 322 323 322 319 318 312 315 323 327 332 330 330 329 324 325 326 325 321 314 305 309 321 325 326 321 314 309 300 287
292 289 284 282 287 295 305 310 315 319 321 320 318 319 315 315 323 327 331 330 328 325 318 319 323 323 315 310 309 309 314 325 328 327 324 322 317 314